Theta_e
280 279 275 274 277 278 278 279 279 278 277 279 278 276 277 276 277 279 280 282 279 279 277 278 279 279 280 281 280 277 279 280 279 278 278 278 278 279 277 277 276 276 277 279 279 279 279 280 280 281 281 281 281 281 281 280 280 280 280 280 279 280 280 280 280 279 279 278 278 278 278 277 278 278 279 278 279 280 280 281 281 282 283 284 284 284
279 279 276 277 278 279 279 277 279 279 278 279 278 274 275 274 275 279 279 280 278 278 277 278 279 279 279 281 277 278 278 279 278 278 277 277 278 278 277 276 276 277 278 278 278 279 279 280 281 281 280 281 279 280 280 280 280 280 280 280 279 280 280 280 279 279 279 279 278 278 277 277 277 277 277 277 278 278 279 279 280 281 282 283 283 283
277 278 279 279 278 278 276 277 278 279 279 277 275 274 272 277 277 279 278 279 278 279 279 279 277 278 279 277 277 276 276 278 277 278 278 278 277 276 276 275 276 276 276 276 277 278 279 280 280 280 280 280 280 280 280 280 280 280 279 280 280 280 280 280 280 279 279 279 279 278 278 278 277 278 278 278 278 278 278 278 279 279 281 282 281 281
277 277 279 278 278 281 280 276 278 275 276 275 275 274 274 276 274 275 278 276 278 278 278 277 275 278 276 277 277 277 276 276 277 278 277 278 277 275 275 276 276 275 276 276 277 277 278 279 279 280 280 280 280 280 280 280 279 280 279 279 280 280 279 280 280 280 279 279 279 280 279 279 277 276 278 277 277 277 277 277 278 278 278 278 279 281
279 280 277 277 277 281 278 275 276 276 276 275 275 273 273 275 277 275 277 279 279 278 277 277 277 277 274 276 276 277 277 276 276 276 275 276 276 276 276 276 276 276 276 277 277 278 279 279 279 279 280 280 280 280 280 279 279 279 279 279 280 279 279 280 280 279 279 279 279 278 278 278 277 277 276 275 275 276 276 276 276 276 278 278 279 280
278 280 278 279 276 275 277 277 276 276 276 275 275 276 277 276 275 277 277 276 276 274 275 276 270 271 274 275 274 276 274 273 274 273 273 274 274 275 274 275 276 277 277 277 278 278 279 279 280 280 280 280 280 280 280 280 279 280 280 279 279 279 279 279 279 279 279 278 277 276 275 274 274 273 274 273 273 274 274 274 276 276 277 278 279 279
280 279 277 279 279 277 275 275 276 276 273 272 277 276 276 276 276 276 276 275 270 270 273 277 269 267 275 275 274 274 273 272 273 272 273 273 273 274 274 275 276 276 277 278 279 279 279 280 280 280 280 280 280 280 281 280 280 280 280 279 279 279 279 279 279 279 279 278 277 275 275 274 273 273 274 274 275 274 275 275 275 275 276 276 276 276
281 279 278 277 277 276 277 277 276 277 273 275 275 275 277 276 276 276 275 273 273 275 277 275 274 266 267 273 274 274 272 271 271 272 272 272 273 274 274 275 276 277 278 278 279 279 280 280 279 279 280 280 280 281 281 279 279 279 279 279 278 279 279 280 279 278 278 277 276 275 275 275 274 273 273 274 274 275 275 274 274 275 275 275 276 276
278 279 278 278 276 277 277 277 277 276 276 278 277 277 276 277 276 276 274 273 271 269 270 273 274 269 265 273 274 274 274 270 271 271 272 273 273 274 275 276 277 278 279 279 278 279 279 279 279 280 280 281 281 281 280 279 279 279 278 279 279 278 278 278 278 278 278 278 276 275 275 274 274 274 274 274 275 274 274 273 274 274 274 275 276 276
280 279 279 280 277 278 278 277 276 277 277 277 279 278 277 276 275 275 273 271 265 266 265 270 272 269 270 274 273 274 274 272 270 271 272 272 273 274 275 277 278 279 279 279 279 279 280 280 280 281 281 281 281 281 281 280 279 278 278 278 278 277 277 277 277 277 277 276 276 275 274 273 273 274 273 274 273 273 273 272 272 273 273 273 274 275
278 282 284 279 279 280 279 279 277 277 279 279 278 277 278 274 270 270 268 266 268 260 263 270 271 270 267 271 269 270 269 270 272 272 273 273 274 275 276 277 278 278 278 279 279 279 280 281 281 281 280 280 281 281 280 279 278 277 277 277 276 277 277 277 277 276 275 275 275 274 274 273 273 273 273 272 272 272 272 271 271 272 272 273 273 274
277 281 279 280 283 280 279 278 278 276 277 277 275 274 277 273 272 266 265 262 260 267 270 268 268 269 265 269 269 270 270 270 271 270 271 273 274 275 276 277 278 278 278 279 279 279 280 280 280 280 279 280 280 280 279 278 277 277 277 277 276 276 276 276 276 275 275 275 275 274 274 273 273 272 272 271 271 271 271 271 271 271 271 272 272 273
277 279 277 279 284 279 277 277 277 276 276 278 276 276 271 268 267 266 267 261 256 260 267 268 271 269 268 268 269 270 270 271 272 273 273 273 274 275 276 277 278 278 278 278 278 278 278 278 278 278 278 278 278 278 278 277 277 276 276 275 275 275 276 275 275 275 275 274 274 274 273 273 273 273 272 271 271 271 271 271 270 270 270 271 271 271
274 275 278 277 279 281 278 277 276 274 277 276 274 269 267 263 259 260 264 265 268 272 273 273 271 268 272 271 271 269 271 273 273 274 274 274 275 275 276 277 277 278 278 278 278 278 278 278 277 277 277 278 278 278 276 276 277 276 276 275 275 275 275 275 275 275 274 274 274 274 273 273 273 272 272 271 271 271 271 271 270 270 270 270 270 271
270 271 276 277 276 278 277 279 278 275 275 274 274 273 264 265 258 260 257 263 266 269 272 268 265 260 266 268 270 271 272 273 275 276 276 276 275 277 277 277 277 277 277 277 277 277 277 277 276 276 276 277 277 276 276 275 276 276 275 275 275 275 275 275 274 274 274 274 274 273 273 273 272 272 272 271 272 271 270 270 270 270 271 271 271 272
273 273 278 278 279 278 278 278 277 277 274 274 272 274 270 267 268 262 262 259 262 265 266 259 261 263 268 272 274 273 273 274 275 276 277 276 276 276 276 276 276 276 276 276 276 276 276 275 276 276 276 276 275 275 275 276 276 276 276 276 275 275 275 274 275 274 274 273 273 273 272 272 272 272 271 271 271 270 270 270 270 270 271 272 272 272
269 270 275 278 276 278 278 279 277 277 267 273 273 266 271 275 272 266 269 271 268 266 265 263 268 272 274 272 272 273 274 275 276 276 275 275 275 275 275 275 275 275 275 275 275 274 274 275 275 276 275 275 275 276 276 276 276 276 276 275 274 274 274 274 274 273 273 272 272 271 271 271 271 271 270 270 269 269 270 271 271 271 271 271 272 272
268 274 278 275 277 279 277 277 277 275 278 272 267 274 277 274 272 264 263 265 265 263 266 268 267 267 266 265 270 273 273 273 274 274 273 274 274 274 274 274 274 274 275 275 274 274 275 275 275 275 275 275 275 276 276 276 276 276 275 274 274 274 273 273 272 272 271 270 270 270 270 270 270 270 270 269 269 270 270 271 271 271 270 270 271 271
272 269 274 276 275 276 277 278 276 277 276 278 275 274 272 261 264 264 260 257 257 260 263 267 268 269 266 267 269 271 270 271 273 273 273 273 273 273 273 273 274 274 274 273 273 274 273 273 273 274 274 274 275 275 275 276 276 275 275 275 274 273 272 271 271 271 270 270 270 270 270 269 269 269 269 269 270 270 270 270 270 270 270 271 271 271
274 266 272 275 276 277 276 275 269 271 275 275 276 274 272 272 265 264 264 262 261 263 261 263 268 265 266 268 271 271 271 272 272 272 271 272 272 272 272 272 273 272 272 273 273 272 271 272 272 272 273 273 273 274 274 274 274 273 274 274 272 271 271 270 270 270 269 269 269 269 269 269 269 269 269 269 270 270 269 269 269 269 270 270 270 270
272 273 265 273 275 274 272 274 272 272 268 272 270 264 267 262 269 268 260 260 260 263 264 263 261 264 270 273 273 273 272 272 272 271 271 271 272 272 272 271 271 272 272 272 271 270 270 270 271 272 273 273 274 274 274 272 272 273 272 270 270 269 269 269 269 268 268 268 268 268 267 268 268 268 269 269 269 269 269 269 269 269 269 270 270 270
267 269 266 273 273 272 274 275 275 275 275 274 270 268 269 266 267 263 263 260 253 258 261 261 259 267 274 275 274 273 273 273 272 272 271 271 271 272 271 270 271 271 272 271 270 269 269 270 270 271 272 273 272 271 271 272 271 269 269 269 269 268 268 267 267 267 267 267 267 267 267 268 268 268 268 268 268 268 268 269 269 269 269 269 269 269
276 269 269 269 271 274 277 274 274 275 274 273 272 270 266 263 261 259 260 262 264 264 265 265 263 265 274 275 275 274 273 273 273 272 271 271 271 271 270 270 272 272 271 270 269 269 269 269 270 271 271 270 270 270 270 269 269 268 268 268 268 267 267 267 266 267 267 266 266 267 268 268 267 267 267 267 268 268 267 267 267 267 266 266 267 267
281 264 263 270 274 275 275 272 274 271 274 273 270 269 268 264 263 261 263 267 263 264 262 264 263 268 272 274 276 275 274 274 274 272 271 271 271 269 269 270 271 271 270 269 269 268 269 270 271 270 269 268 268 268 268 268 268 268 267 267 267 266 266 266 266 266 266 266 267 267 267 266 266 266 266 267 267 266 266 266 266 266 266 266 266 266
268 268 268 267 269 270 272 273 273 273 273 272 270 268 267 265 263 261 260 257 261 264 266 264 259 264 274 277 276 274 273 273 272 272 272 270 269 269 269 270 271 270 269 268 267 268 269 269 268 268 268 267 268 268 268 267 267 267 266 266 265 265 265 265 265 265 266 266 266 266 266 265 266 266 266 266 265 265 265 265 265 265 265 265 265 266
271 270 267 263 265 263 265 265 268 270 272 273 270 268 265 263 262 263 259 258 261 267 268 264 263 270 274 276 274 273 272 271 272 271 272 271 269 268 269 270 269 268 267 267 267 268 267 267 268 267 267 266 266 266 266 267 266 265 265 265 265 264 264 264 265 266 266 266 265 265 264 265 265 265 265 265 264 264 264 264 264 264 265 265 265 266
266 269 266 263 265 268 270 273 276 277 274 268 268 265 265 263 261 261 262 262 262 265 264 266 268 268 270 271 271 271 271 269 269 270 270 269 269 269 269 269 268 267 267 266 266 267 267 267 266 266 265 265 265 265 266 265 264 264 264 263 264 264 264 264 265 266 265 264 264 264 264 264 264 264 265 264 264 264 263 263 264 264 264 265 266 266
264 266 267 270 269 273 274 274 275 275 271 272 268 264 265 264 261 261 261 264 269 265 262 269 270 267 268 270 270 270 270 269 269 269 270 269 269 268 269 268 269 267 266 266 266 266 266 266 265 264 264 264 265 264 264 263 263 262 262 262 263 263 263 264 265 264 263 263 263 263 263 263 264 264 263 263 263 263 263 263 263 264 265 265 265 265
264 265 266 265 266 270 272 272 273 272 271 271 268 266 265 266 263 260 258 265 267 265 264 268 269 267 268 270 271 270 269 269 269 269 270 270 269 268 267 266 265 265 265 265 265 265 266 265 264 263 263 264 264 262 262 262 262 261 262 262 262 262 263 264 263 262 263 263 262 262 263 263 262 262 262 262 262 262 262 263 263 264 264 264 264 265
268 263 262 262 268 270 271 272 272 270 269 267 263 268 267 266 264 264 266 268 267 266 269 269 269 268 269 270 271 271 271 270 270 271 270 269 268 267 266 265 265 264 264 264 265 265 265 265 264 263 263 263 261 260 260 260 260 260 260 261 261 262 264 263 262 262 262 262 262 262 261 261 261 261 261 261 261 262 262 262 263 263 263 264 264 264
270 267 271 261 264 269 272 271 269 269 267 265 267 267 267 266 266 266 265 267 268 268 270 269 267 266 271 272 271 272 271 271 270 269 268 268 267 266 265 264 264 264 264 264 265 264 264 264 264 263 262 261 260 260 259 259 260 260 260 261 261 262 263 262 262 262 261 261 260 260 260 260 260 260 260 261 261 262 262 262 263 263 263 263 264 264
267 268 259 257 265 268 269 268 270 269 266 264 264 266 267 265 263 265 262 268 268 267 268 267 264 264 270 271 271 271 270 269 268 268 267 267 266 265 264 263 263 263 264 264 263 263 262 262 262 261 260 260 259 259 259 259 259 260 260 260 261 262 262 262 261 260 260 260 260 259 259 259 259 260 260 260 261 261 262 262 262 262 262 262 263 263
263 263 266 259 265 264 269 269 270 268 264 260 260 265 266 268 268 269 271 272 271 270 265 260 262 269 270 271 269 269 269 269 268 267 266 266 266 265 263 263 263 263 264 263 261 261 261 261 262 261 260 260 259 259 259 259 259 259 260 260 262 262 261 260 260 259 259 259 259 259 259 259 259 259 259 260 260 261 261 261 261 261 262 262 263 263
260 264 264 260 263 265 270 268 270 265 265 265 268 270 269 267 267 267 269 270 269 266 266 268 269 271 270 269 268 268 268 268 268 268 268 266 265 264 264 263 264 264 262 262 261 260 260 262 261 260 260 259 260 259 260 260 259 259 260 261 262 260 259 258 258 258 258 258 258 258 258 258 258 258 259 260 260 260 260 260 260 261 262 262 263 263
263 262 265 256 261 265 265 269 269 267 262 266 270 272 272 271 270 269 269 271 270 268 268 268 269 269 270 270 269 269 270 269 269 267 267 266 265 264 263 263 263 262 261 260 260 260 261 261 260 260 259 259 259 259 259 259 259 260 260 261 259 259 258 257 257 257 257 257 257 258 258 258 258 258 259 259 259 260 260 260 260 261 261 262 262 262
265 265 261 262 257 260 262 262 262 264 267 269 269 270 273 273 271 271 271 271 269 269 269 269 269 270 270 269 270 270 269 269 268 268 267 267 266 264 263 263 263 261 260 260 260 260 260 261 260 259 259 259 259 259 259 258 259 259 260 259 258 257 257 257 256 257 257 256 257 257 257 257 257 258 258 258 259 259 259 259 260 260 261 262 262 263
269 261 260 266 260 262 263 259 264 272 268 268 266 269 269 267 269 269 264 269 267 269 270 269 269 269 269 269 270 269 269 267 265 265 267 266 265 265 264 264 263 261 261 260 261 260 261 261 260 259 259 259 258 258 258 259 259 259 258 257 257 256 256 256 256 256 256 256 256 256 257 257 257 257 257 258 258 258 258 259 259 260 261 261 262 262
270 269 267 266 264 259 261 263 263 262 262 262 268 271 273 273 273 272 267 266 269 270 272 270 268 269 268 269 269 268 267 263 260 262 265 266 266 265 265 264 263 262 261 261 261 260 261 260 259 259 259 258 258 258 258 259 259 258 257 256 256 255 255 255 255 256 256 255 256 256 257 257 257 257 257 257 257 257 258 259 260 260 261 261 261 262
268 268 264 264 263 260 258 258 258 258 263 267 269 271 272 273 272 270 265 261 269 271 271 270 269 269 269 268 267 266 263 258 259 261 265 265 265 265 264 263 262 261 260 261 260 259 260 259 259 258 258 258 257 257 258 259 258 257 255 255 255 255 254 254 255 255 255 255 256 256 256 257 257 257 257 256 257 257 258 258 259 260 261 262 262 262
262 258 261 259 258 259 258 259 258 257 265 268 269 270 273 274 273 269 263 264 268 271 271 270 269 268 268 268 267 265 261 256 258 262 266 265 265 265 263 261 260 260 260 261 260 260 260 259 258 257 257 256 256 257 258 258 257 256 254 254 254 254 254 254 255 256 256 256 256 256 256 256 256 256 256 257 257 258 258 259 260 261 261 261 262 262
258 261 259 265 259 263 265 258 259 266 270 271 270 274 273 273 270 265 261 268 272 271 272 271 270 269 269 267 266 262 263 265 264 265 266 265 264 263 263 262 261 260 259 260 259 260 259 258 258 257 256 256 257 257 258 257 255 254 254 254 253 253 254 255 256 255 255 255 255 256 256 256 256 256 256 257 257 258 259 260 260 260 261 261 262 263
260 257 258 258 260 260 256 260 265 268 269 271 272 274 273 271 263 264 271 272 272 271 272 271 270 270 268 267 265 264 265 266 266 265 264 264 263 263 262 261 260 260 260 260 259 259 258 257 257 257 256 256 257 257 257 256 254 253 253 253 253 254 255 256 255 255 255 255 255 255 255 256 256 256 256 257 258 258 258 260 260 260 261 262 262 263
263 263 263 263 262 263 259 260 263 265 266 271 273 272 272 269 270 273 272 272 273 272 271 270 270 269 268 265 266 264 264 264 264 263 263 263 262 260 260 259 258 258 258 257 257 258 257 256 256 256 255 256 256 257 256 255 254 253 253 252 253 255 255 255 255 254 254 254 254 254 255 255 255 255 256 257 258 258 258 259 260 260 261 262 263 264
265 266 261 260 260 265 259 263 265 271 273 274 274 270 271 273 273 272 272 270 272 272 270 270 270 269 268 266 264 263 264 263 262 262 262 262 261 260 259 259 259 258 258 258 258 257 257 256 256 255 255 255 256 256 255 255 253 252 252 252 254 255 255 255 254 254 253 253 254 254 254 255 255 256 256 257 258 258 258 258 259 260 261 262 263 265
271 267 264 270 264 267 266 269 275 275 275 273 273 274 273 273 274 273 272 272 271 271 271 269 268 268 267 265 264 263 262 262 262 262 261 260 260 259 258 258 258 257 257 257 256 257 256 255 254 254 254 255 255 255 255 255 253 252 251 253 254 254 254 254 253 253 253 253 253 253 254 254 255 256 257 257 257 257 258 258 259 260 261 262 264 265
274 273 271 271 269 272 275 276 278 277 277 275 274 274 273 273 273 273 272 271 272 272 270 268 268 267 266 265 263 263 262 262 261 261 260 260 259 259 258 258 257 257 257 257 256 256 256 255 254 254 253 254 255 254 254 254 253 251 252 253 254 254 254 253 252 252 252 252 252 253 253 253 254 256 257 257 257 257 258 258 259 260 261 263 264 266
269 271 272 268 269 270 269 273 274 274 274 274 273 273 273 273 273 273 272 272 272 271 269 269 267 266 265 265 263 262 262 262 261 261 260 259 258 258 257 257 257 257 256 255 256 256 254 254 252 252 252 252 254 254 254 254 253 253 253 253 254 254 253 252 251 251 252 251 252 253 253 253 255 256 256 256 257 258 258 259 260 260 262 263 264 265
271 273 271 273 270 271 274 274 274 274 274 274 273 273 272 273 273 273 273 272 271 270 269 268 267 265 265 263 263 262 261 262 260 259 258 258 257 257 257 256 256 256 256 256 256 255 254 253 252 251 252 252 253 253 253 253 253 253 253 253 254 253 252 251 251 251 251 251 252 252 253 254 255 255 255 256 257 257 258 259 260 261 262 263 264 265
272 273 267 271 271 273 275 276 276 274 274 274 273 273 273 273 272 272 272 271 270 268 267 267 267 265 264 264 264 262 261 261 260 259 258 257 257 257 256 256 256 256 255 255 255 254 253 252 251 251 251 252 253 253 253 253 252 252 252 253 253 253 251 251 251 251 251 252 252 252 254 254 255 255 255 255 256 257 258 259 260 262 263 266 267 267
272 271 271 270 269 269 270 273 272 271 271 273 272 273 273 273 272 271 271 270 269 267 266 265 265 265 264 264 263 262 260 260 260 259 257 257 257 256 256 256 256 255 255 255 255 254 252 252 251 251 251 252 252 252 252 252 252 252 252 253 253 252 251 250 250 250 251 251 252 252 253 254 254 254 255 255 256 256 258 261 264 265 264 265 268 269
275 276 273 270 266 272 276 274 274 275 275 275 274 273 273 272 271 270 270 269 268 268 267 264 263 262 263 263 263 261 260 259 258 258 257 256 256 257 257 256 255 254 253 254 253 252 251 251 251 251 251 252 252 251 252 251 251 251 252 253 253 252 250 250 250 250 251 251 251 253 253 253 253 254 255 255 255 256 257 258 260 266 267 267 267 269
Wind_Speed
1 9 5 3 4 4 4 3 2 1 3 2 1 3 9 9 12 8 9 11 2 5 7 8 10 11 13 13 9 8 5 1 1 4 5 7 8 8 8 7 8 8 8 5 5 6 6 5 3 3 2 4 4 4 5 4 4 5 4 5 5 4 3 3 4 4 4 5 5 4 5 6 7 8 9 9 9 8 9 11 12 12 10 9 8 8
5 8 5 3 2 3 3 1 2 2 0 2 4 4 9 3 11 10 11 6 2 1 6 5 15 14 10 9 8 9 9 9 8 3 3 6 6 6 9 9 8 6 4 6 6 6 4 3 3 2 3 4 5 5 4 3 2 3 4 3 2 2 2 2 2 3 3 3 4 5 5 6 7 8 8 9 9 10 10 12 13 12 11 10 8 8
7 5 3 2 1 4 5 3 1 2 2 1 3 4 6 9 10 10 8 1 1 7 16 9 15 14 10 6 8 11 7 6 8 3 4 9 7 7 7 8 7 7 6 6 5 2 2 1 1 2 3 2 3 3 2 2 2 1 2 3 2 2 2 3 3 4 4 3 3 4 6 7 7 6 8 9 9 10 10 10 11 11 9 9 10 10
6 3 3 1 3 1 1 2 0 2 1 3 6 6 7 6 7 15 4 4 2 3 12 11 12 12 5 5 10 9 9 5 9 11 10 6 8 8 8 7 7 7 8 5 3 2 0 1 1 3 3 3 3 4 4 3 3 3 3 4 4 4 3 3 3 5 5 4 5 4 5 6 7 9 10 10 9 10 11 12 12 12 13 14 12 10
1 1 1 3 2 0 4 2 2 5 7 5 4 3 6 8 7 5 16 17 13 2 2 8 13 3 4 4 7 8 8 10 11 11 12 11 11 9 10 10 8 7 5 3 1 0 2 3 4 4 5 4 5 5 5 5 5 4 5 5 5 4 4 4 5 5 4 4 3 3 4 5 7 7 7 8 8 9 11 13 12 13 13 13 13 12
3 0 2 1 1 4 3 5 3 3 8 8 5 5 5 7 11 14 15 15 11 5 3 11 8 6 1 6 7 6 7 12 9 12 11 11 11 10 11 8 5 4 2 3 2 2 4 5 6 7 7 7 7 7 7 6 7 7 5 5 6 5 5 5 5 5 4 4 4 5 6 7 7 9 9 9 10 12 12 12 13 14 14 13 12 12
0 1 1 1 3 4 5 3 1 2 5 5 6 1 3 8 11 13 16 9 7 7 5 3 3 9 4 7 7 5 9 11 10 11 10 9 9 8 6 4 2 0 3 2 3 4 6 8 7 8 8 7 8 9 7 7 7 7 6 6 7 6 5 5 5 5 4 4 4 5 6 7 8 10 9 9 10 12 11 11 14 13 14 14 15 15
2 4 6 4 5 6 6 8 2 1 5 6 2 1 10 13 14 14 12 2 6 2 5 2 3 4 7 5 2 3 10 9 10 10 9 8 8 6 4 2 2 4 9 8 10 11 9 9 8 10 9 8 9 9 7 7 7 7 8 7 7 6 6 5 5 4 5 4 5 5 6 7 8 9 11 12 12 12 13 14 15 14 14 15 15 16
2 5 5 6 4 5 5 2 4 1 1 7 5 8 13 14 13 11 8 7 4 2 7 6 3 3 3 4 1 3 6 8 8 7 7 6 5 3 2 7 9 11 11 10 11 12 9 8 8 9 11 10 10 10 7 8 7 7 7 7 7 7 7 6 5 5 5 5 5 5 5 7 7 9 10 11 11 13 12 15 15 15 15 14 15 14
1 1 1 1 2 4 3 5 4 3 5 4 9 8 9 9 2 2 4 5 1 2 5 4 3 5 13 5 4 4 4 5 4 6 6 4 4 4 8 12 11 11 10 9 10 11 13 12 12 12 11 10 10 10 9 9 8 7 6 6 7 8 6 6 6 5 5 5 5 5 6 8 8 8 9 9 11 11 13 14 15 15 14 14 13 13
2 3 3 3 1 0 3 5 2 2 3 7 7 7 10 2 2 3 4 3 5 2 1 1 2 2 13 4 2 3 3 1 3 5 6 5 5 5 10 10 12 11 12 11 12 12 12 11 10 10 11 11 12 11 9 8 6 6 6 8 8 9 7 6 6 5 6 6 5 5 6 8 10 11 10 11 12 13 14 14 16 14 14 14 13 13
4 0 1 1 1 2 1 5 1 1 1 5 5 6 13 2 2 4 3 2 2 9 0 3 5 2 12 3 4 5 5 4 6 5 9 9 10 10 11 10 12 12 12 13 13 14 14 14 14 13 14 12 12 12 9 8 6 6 6 7 8 8 8 7 6 5 6 5 5 6 6 8 9 10 10 12 15 14 15 16 15 14 13 14 14 15
3 4 2 3 2 3 2 2 2 2 5 9 7 12 14 11 10 10 6 9 0 7 5 2 10 10 6 1 4 6 6 8 5 6 6 8 10 11 11 13 12 11 12 13 13 13 13 14 16 17 17 17 14 14 11 7 4 4 6 8 9 9 9 8 6 6 6 5 5 5 6 7 8 10 11 13 14 14 15 14 16 15 14 14 15 14
7 2 4 2 2 1 3 13 10 7 9 10 10 5 9 9 5 8 8 5 7 13 4 12 7 4 4 3 2 6 5 5 5 7 4 6 9 11 13 12 12 12 13 13 14 13 14 14 15 16 16 16 16 14 9 5 4 6 7 8 8 10 9 8 7 6 6 5 5 5 6 7 8 10 12 12 13 14 13 14 15 15 14 15 15 14
9 8 4 5 3 3 4 5 1 5 3 3 2 3 2 2 1 8 3 12 15 15 21 5 3 4 9 4 4 7 5 4 2 6 3 4 5 10 10 11 13 14 14 13 14 14 15 16 16 16 16 14 12 9 5 6 10 10 11 8 11 12 9 7 6 5 5 4 4 6 6 7 9 11 12 12 13 13 15 14 15 15 15 14 13 13
1 6 6 1 4 2 5 0 0 0 3 2 3 5 6 7 0 4 6 5 8 13 11 3 3 3 4 1 4 2 3 1 1 6 9 12 11 14 14 15 15 14 13 14 16 16 17 17 15 14 14 11 12 10 10 11 9 9 10 11 12 14 11 7 5 4 3 5 5 6 9 10 11 12 13 13 14 14 14 15 15 14 13 12 13 13
3 2 2 7 4 1 2 0 1 0 5 5 4 5 5 4 4 6 5 5 9 8 8 1 4 5 4 5 4 2 3 6 9 10 11 14 14 14 15 15 15 14 13 15 15 15 14 13 13 12 13 14 14 13 12 12 11 11 12 11 13 15 9 6 4 5 6 7 9 10 11 12 13 14 15 14 17 17 15 14 12 12 13 13 12 12
0 11 8 3 2 1 1 2 2 4 1 2 5 6 5 5 6 5 7 8 7 10 10 2 12 12 6 7 2 1 8 10 11 11 11 12 14 15 14 15 14 14 13 13 14 13 12 13 16 16 13 16 15 16 16 15 13 11 12 15 15 15 8 6 8 10 10 11 11 12 13 14 14 14 14 15 16 15 13 12 12 12 13 13 12 12
1 7 4 0 3 7 1 2 2 1 3 8 3 1 6 6 7 4 1 7 9 9 13 14 11 9 3 6 3 5 6 11 12 12 14 16 16 16 16 16 15 13 11 12 11 12 16 18 18 17 16 17 17 19 18 15 12 11 12 12 12 11 10 11 10 11 11 12 11 11 14 16 15 14 14 14 15 13 12 13 13 13 13 12 12 12
1 1 7 1 0 7 2 3 2 4 4 2 1 5 1 1 1 6 4 3 4 11 10 19 13 9 0 3 2 7 5 9 11 14 14 17 15 15 14 12 14 11 12 12 14 15 18 19 19 18 18 19 19 20 17 13 14 17 16 13 12 13 13 12 12 12 13 13 13 15 15 16 15 14 14 14 13 12 13 13 13 13 13 13 13 13
1 1 4 5 4 4 2 1 1 1 3 6 7 4 5 1 7 8 1 3 3 6 8 15 18 5 2 2 2 3 4 8 12 16 17 17 16 16 14 17 17 11 11 13 14 18 20 20 19 17 16 16 16 15 13 16 19 17 14 13 13 14 14 14 14 15 14 14 15 16 17 16 15 15 14 14 13 13 13 12 13 12 12 12 13 12
1 0 4 9 10 4 4 1 1 1 3 2 2 2 1 7 12 12 10 2 2 1 8 8 17 10 6 2 3 1 6 11 18 21 20 18 18 15 16 23 14 12 13 15 17 20 20 20 18 17 17 13 18 18 21 18 15 14 14 13 12 14 13 15 16 15 15 14 14 16 16 15 13 14 14 15 14 13 13 13 12 12 12 12 12 12
1 2 1 8 5 8 8 0 2 1 3 3 6 2 3 3 2 2 6 7 4 4 5 6 13 9 2 3 3 1 8 16 19 19 17 13 13 15 19 20 11 10 14 16 19 20 19 18 18 16 17 20 19 18 16 14 13 13 14 15 14 15 16 16 16 15 14 15 15 15 14 13 14 15 16 15 13 13 11 11 12 12 13 13 13 13
4 1 2 7 6 6 1 3 1 2 4 4 5 3 3 2 2 3 6 3 5 5 5 9 11 9 1 4 2 8 14 14 15 14 17 16 12 15 23 16 11 14 16 18 18 20 18 17 16 17 16 15 14 14 15 13 13 14 15 14 14 17 17 17 16 16 15 15 15 14 13 14 15 16 14 14 10 12 12 13 13 13 14 14 13 14
1 2 2 8 7 3 1 0 2 3 2 2 1 2 3 2 2 4 2 1 1 5 5 10 14 16 9 13 12 13 15 18 16 15 14 14 12 15 20 16 15 16 17 19 22 21 19 18 21 17 14 14 16 16 15 15 14 14 14 14 16 15 15 16 16 15 15 15 15 14 15 16 15 15 14 11 10 13 13 14 13 13 15 14 14 13
0 2 4 5 6 9 14 14 14 13 10 3 4 3 3 7 6 7 4 3 3 3 8 6 14 15 19 18 16 16 16 16 15 15 13 9 12 16 20 15 14 15 16 21 22 20 20 21 17 15 16 15 15 16 16 15 15 15 16 17 15 16 16 17 16 14 14 14 15 15 16 15 14 16 13 12 13 14 15 14 15 15 14 14 14 13
1 0 1 5 3 7 10 11 10 7 9 7 6 4 6 1 0 1 1 1 6 12 7 9 13 25 24 21 20 19 15 18 20 20 17 13 13 14 15 11 14 15 17 20 20 18 20 16 15 16 16 17 17 16 15 18 19 19 17 18 17 16 16 16 15 14 14 16 16 15 14 15 16 14 12 14 14 14 15 15 16 15 14 13 13 13
2 1 3 4 6 8 10 12 14 7 11 10 7 3 1 3 4 3 2 7 7 11 18 11 19 20 23 21 16 20 19 15 17 20 17 12 14 18 14 15 20 18 19 18 19 22 17 12 13 14 16 17 15 16 17 16 16 18 18 18 17 17 16 13 14 14 15 15 14 14 15 15 14 15 16 15 16 16 16 15 14 14 13 13 14 13
1 0 4 4 9 8 11 13 14 9 5 6 1 1 2 2 2 2 6 9 7 6 15 23 20 21 20 15 17 17 18 18 17 17 14 18 18 17 13 17 19 21 20 21 20 18 14 18 12 14 16 15 15 18 19 18 17 17 17 16 16 16 15 14 14 15 14 14 14 14 14 15 15 14 15 16 16 15 14 14 14 14 13 13 13 12
1 2 4 4 9 8 12 13 11 7 3 1 1 1 1 2 4 5 8 9 8 11 17 17 19 18 15 13 17 19 16 16 18 17 17 20 21 15 16 18 20 20 21 22 21 17 19 17 17 14 16 16 15 16 18 17 18 17 16 15 15 15 14 14 15 15 14 14 14 15 16 16 15 16 16 15 15 15 15 14 14 14 14 14 14 13
2 4 3 1 4 9 9 6 1 3 3 3 2 3 4 5 7 10 6 7 10 12 12 15 15 16 10 10 14 16 13 15 20 18 23 20 15 13 17 18 20 21 23 22 20 16 20 22 20 18 15 14 15 17 17 17 16 15 15 15 16 15 14 15 16 15 15 15 15 15 16 16 16 16 16 15 14 15 15 15 13 14 14 14 14 14
3 4 2 3 6 8 1 2 9 2 1 3 3 1 4 6 5 3 3 6 9 17 18 12 11 10 10 14 15 17 18 17 18 23 20 17 12 14 15 18 19 21 20 18 19 22 20 21 15 16 14 15 16 17 18 17 15 15 16 16 15 15 14 15 15 16 16 15 15 16 17 16 17 16 16 15 15 15 15 15 15 15 14 14 14 13
0 0 4 2 4 6 1 7 15 4 3 2 4 5 6 5 5 6 7 9 11 7 8 10 10 9 15 17 20 19 19 21 16 14 17 13 12 15 17 17 18 20 20 15 19 20 19 18 17 14 13 13 14 15 16 16 15 16 17 16 15 14 14 15 16 15 16 16 16 17 16 17 17 17 16 16 16 15 15 15 15 15 14 15 14 14
0 1 1 2 1 9 8 12 11 1 4 5 3 5 3 2 6 13 17 16 4 7 5 6 10 14 17 17 17 19 17 13 15 16 12 8 12 13 16 17 18 17 14 16 16 17 18 17 12 12 14 15 16 16 16 16 16 16 16 15 14 14 14 15 16 15 16 16 16 17 17 17 17 16 16 16 16 16 15 15 15 15 13 13 13 13
0 1 0 2 0 8 9 14 7 9 3 2 7 6 1 6 7 10 14 12 4 3 7 11 14 19 17 15 16 16 16 14 15 14 7 7 11 13 16 17 18 13 17 19 19 17 19 18 13 16 14 15 17 16 15 16 16 16 16 14 15 14 14 14 15 15 15 16 17 17 17 17 17 17 16 16 16 16 16 15 15 15 13 12 12 13
1 0 2 0 2 3 5 7 6 6 1 2 4 6 3 4 6 12 15 3 4 3 7 13 17 17 17 18 15 12 13 17 13 7 4 9 10 13 17 18 15 15 16 17 17 17 20 17 14 16 15 14 14 15 15 16 16 16 15 13 14 15 15 15 15 15 15 17 17 17 17 17 17 17 16 17 16 16 16 15 14 15 14 13 12 11
5 4 2 4 1 2 3 3 8 7 2 1 2 1 2 4 9 10 13 15 2 3 9 12 16 16 18 18 16 13 14 15 12 8 9 12 14 14 16 15 12 16 17 17 15 17 18 12 13 15 13 15 17 16 16 16 15 15 15 14 14 15 15 16 15 15 16 17 17 17 17 17 17 17 17 16 16 16 15 15 15 14 12 12 12 12
1 1 2 2 3 3 3 9 6 4 3 3 7 3 3 5 6 4 4 10 2 3 6 10 14 15 17 17 16 19 18 17 17 14 14 15 16 18 15 9 11 15 17 16 14 16 15 11 13 15 16 17 16 16 16 17 14 14 13 15 15 16 16 15 15 16 17 17 18 18 17 16 16 16 17 16 16 16 15 14 13 12 11 11 12 13
4 5 5 2 1 4 2 0 3 2 7 5 5 6 5 4 3 1 6 8 4 1 8 11 15 15 14 14 15 16 16 16 17 14 13 14 14 13 13 13 14 15 16 15 15 19 16 13 15 15 14 16 17 17 17 15 14 14 14 15 15 15 15 15 16 17 17 18 18 17 16 16 16 16 16 16 15 14 15 14 13 13 11 11 11 12
4 3 2 2 1 2 2 0 5 4 6 4 5 4 3 6 2 2 13 8 2 10 10 11 13 14 14 11 10 10 9 14 17 16 15 15 15 14 10 15 16 18 18 14 13 17 14 13 14 15 16 17 17 17 17 13 15 15 14 15 14 14 15 16 16 18 18 18 17 16 16 15 16 15 15 15 15 14 13 12 12 13 13 12 10 11
3 3 3 3 2 3 5 4 4 8 4 1 3 3 4 5 5 7 11 16 12 12 10 10 11 10 8 11 8 10 7 9 13 15 15 16 16 10 9 12 13 14 16 15 15 17 14 14 15 16 16 15 16 16 14 11 13 13 15 15 14 15 15 16 17 17 17 16 16 17 17 15 14 15 15 13 13 13 12 11 12 13 12 12 11 10
1 1 1 1 1 2 3 5 8 9 6 2 3 4 5 4 6 12 6 4 10 11 9 8 11 8 7 8 8 8 10 11 12 11 13 14 14 13 13 15 16 15 14 14 16 16 14 15 15 15 16 15 16 15 15 14 12 12 14 14 15 16 16 16 16 16 17 17 16 16 15 15 14 13 11 11 11 12 13 12 11 11 11 10 10 13
3 1 4 2 2 1 1 3 6 7 2 6 5 1 1 6 7 3 6 5 4 7 9 9 7 8 7 10 9 10 12 12 10 11 13 13 12 11 14 15 15 14 15 16 17 15 14 14 15 15 16 15 15 13 15 15 12 14 14 15 17 16 15 16 15 16 17 15 14 14 14 13 14 13 11 11 11 12 13 11 11 11 10 11 12 12
3 1 2 3 6 1 1 1 2 7 1 4 2 6 2 5 1 1 2 8 4 4 6 6 6 5 7 8 11 11 11 11 12 12 13 12 12 12 14 13 13 13 13 13 14 15 15 14 14 15 15 15 14 13 15 14 12 14 16 16 16 15 15 15 16 16 15 13 13 13 13 13 15 14 12 12 11 11 12 12 11 10 9 11 10 10
8 4 6 4 3 4 7 8 8 3 2 2 2 4 2 3 2 2 3 4 7 5 2 5 7 6 6 8 10 9 10 10 12 12 12 13 13 12 14 14 14 14 14 15 15 15 14 15 16 16 17 15 15 13 14 13 13 16 16 16 16 15 15 16 16 14 13 14 13 13 14 13 13 13 11 12 11 11 11 12 12 10 10 10 10 9
1 2 1 1 7 6 10 14 13 10 10 6 2 2 3 3 3 3 3 5 3 4 1 3 5 5 7 6 8 9 7 10 12 12 11 11 12 12 11 12 12 12 13 13 14 14 14 15 15 16 17 17 14 13 13 12 12 16 15 15 14 14 14 15 15 14 14 14 12 13 13 14 13 12 12 12 10 10 9 10 10 9 10 9 9 9
3 2 3 3 2 4 9 0 4 6 2 3 4 3 3 3 5 4 1 2 4 3 3 1 2 5 6 6 6 9 11 10 11 10 9 9 11 11 12 12 12 12 14 15 14 13 12 13 14 15 16 16 13 12 14 12 12 13 13 14 14 14 14 13 14 14 13 14 12 12 12 13 11 12 12 12 10 10 8 8 8 8 9 8 9 10
2 3 1 7 3 5 12 3 6 3 4 4 5 5 6 6 2 2 3 3 2 1 1 1 1 5 3 5 5 7 10 9 9 9 9 8 10 11 12 11 12 13 13 13 13 11 10 12 14 14 15 14 12 13 14 12 14 14 13 13 13 12 13 14 14 14 14 14 12 11 11 11 14 14 10 11 11 10 10 8 8 9 9 8 9 9
3 5 4 4 6 9 10 14 12 7 9 6 2 3 4 4 2 3 2 3 2 3 3 3 1 2 3 5 5 6 9 9 8 9 10 11 10 10 10 11 12 13 14 14 13 9 11 12 13 14 15 14 11 12 13 12 13 13 14 14 12 12 14 14 14 14 13 12 11 11 10 10 10 11 11 11 11 9 7 7 10 11 9 8 7 9
6 6 2 1 6 8 8 7 2 6 8 2 6 8 5 3 4 3 2 2 2 4 3 5 5 2 3 2 3 4 7 8 7 7 10 10 10 12 12 12 12 13 13 12 11 10 11 11 13 14 14 13 11 12 13 11 11 11 12 12 11 13 14 13 12 12 12 11 10 10 11 10 10 10 10 11 10 12 14 15 17 11 10 10 15 20
9 9 7 6 5 9 6 5 5 5 6 7 3 4 4 5 5 4 4 4 4 3 4 2 5 6 5 4 2 4 5 5 7 8 8 8 9 10 10 12 12 10 10 10 9 8 10 11 12 13 13 12 11 11 11 10 11 11 11 12 12 12 13 14 10 9 10 9 9 12 11 10 10 10 10 10 10 10 10 12 16 21 17 16 19 19
Wind_Direction
335 68 59 327 296 263 269 206 190 217 177 269 257 240 268 281 279 263 262 266 32 308 253 241 260 278 296 300 0 347 329 72 30 155 145 154 152 149 125 129 124 120 122 125 99 83 90 92 86 84 65 55 26 32 16 20 39 37 24 21 15 8 357 9 1 344 345 337 325 317 322 317 320 320 321 317 315 312 310 309 307 303 295 291 292 296
65 57 352 266 232 253 284 182 113 68 101 226 282 297 299 240 286 293 286 324 2 50 279 306 303 303 309 321 9 347 19 21 357 324 138 143 138 120 121 125 123 105 73 86 68 73 74 90 92 56 55 12 19 360 10 1 10 34 15 5 328 318 318 309 298 305 309 281 306 304 303 312 313 317 316 314 317 315 315 314 309 305 294 287 288 292
40 59 324 317 104 74 53 78 109 190 259 243 279 304 321 300 291 273 257 358 274 354 300 337 319 308 312 37 26 22 359 350 342 278 176 138 115 101 113 109 90 79 73 55 64 48 100 120 203 65 1 14 355 321 314 312 276 299 345 309 263 277 273 276 289 304 300 299 295 297 305 316 310 303 304 306 306 307 305 300 300 296 287 284 286 285
24 298 297 47 107 85 44 28 40 23 61 308 339 346 305 301 22 323 259 172 323 328 291 331 308 305 33 88 63 32 25 5 14 39 54 53 95 99 96 93 95 81 71 74 80 54 278 231 349 310 314 300 294 292 275 255 248 256 284 261 256 258 257 255 267 297 296 283 294 290 282 297 302 305 308 302 298 302 301 304 304 300 292 286 279 272
143 297 165 70 55 119 325 0 38 31 330 303 293 237 295 319 302 202 298 315 308 316 12 328 321 337 12 26 1 9 14 37 19 43 49 57 67 73 71 62 62 84 105 98 69 358 302 290 277 283 280 274 268 259 255 237 237 244 238 250 245 246 250 252 260 264 263 276 272 270 278 279 285 283 285 292 299 299 305 304 302 297 296 290 286 286
346 282 161 359 21 40 26 356 38 26 333 327 253 217 269 295 302 296 297 330 326 338 121 20 343 314 267 71 27 5 23 37 23 53 48 56 59 65 68 71 72 63 128 171 225 270 263 267 274 272 265 259 255 253 240 224 233 235 236 242 249 237 241 246 243 246 261 270 280 296 305 308 306 304 306 309 309 311 309 305 304 303 296 289 288 289
218 8 82 30 334 9 48 74 274 55 342 346 305 150 270 283 283 291 302 355 311 315 298 31 158 280 337 354 9 10 49 54 44 49 53 52 53 57 64 68 60 159 339 259 281 282 281 285 267 263 257 255 254 250 238 224 221 231 230 236 236 234 237 232 233 237 251 253 259 266 283 289 294 299 299 300 304 304 303 306 303 301 300 298 296 293
3 338 6 29 39 33 24 13 325 52 359 301 230 350 309 304 299 300 301 239 250 328 308 44 127 221 305 325 351 46 78 64 52 49 48 50 56 59 49 5 303 321 338 319 311 310 286 271 258 268 266 261 257 257 244 221 221 221 231 232 234 238 241 229 226 228 231 245 254 261 265 278 287 292 300 306 307 308 307 304 303 299 296 291 288 287
63 328 20 360 34 41 26 254 287 141 237 276 304 317 300 278 286 297 297 292 251 8 311 355 331 317 232 255 87 15 54 58 61 51 47 39 32 42 351 347 327 324 327 311 305 300 288 282 270 272 274 268 268 268 252 229 219 220 229 232 242 242 239 239 228 235 233 240 248 248 262 274 285 295 300 303 302 302 299 300 298 297 292 288 286 285
317 113 251 142 76 358 264 283 260 181 322 290 299 299 263 268 258 279 285 296 331 67 307 320 14 344 299 349 13 353 101 72 90 59 46 36 5 339 345 337 329 319 310 303 292 292 293 287 285 281 272 271 266 265 256 235 219 221 227 242 247 249 247 241 229 238 244 242 255 258 263 275 289 294 292 291 295 294 301 297 298 297 296 294 292 291
269 323 197 85 126 241 269 275 233 198 223 292 303 320 316 354 75 47 70 349 354 45 259 216 320 96 301 338 258 23 320 202 106 59 30 348 338 324 336 331 329 322 316 310 306 300 292 287 281 281 284 277 277 275 261 243 223 221 234 247 252 251 253 244 234 229 236 239 237 247 259 276 287 293 294 299 297 302 300 299 300 297 295 293 292 293
4 339 57 304 116 304 151 316 47 87 223 1 349 321 332 29 12 53 345 40 52 298 33 246 156 289 304 320 46 16 14 78 88 61 26 357 349 341 336 327 323 317 314 312 311 312 312 313 313 310 307 303 297 292 274 236 226 234 257 263 263 267 259 248 240 233 236 236 240 247 266 283 291 295 301 302 303 302 300 301 298 298 295 292 293 292
56 82 296 342 233 16 304 227 290 25 352 11 356 12 24 331 6 332 18 358 89 238 255 227 325 334 264 302 92 58 66 78 83 89 37 351 345 338 329 327 321 316 310 313 319 322 327 326 325 325 322 321 319 309 291 259 259 308 285 272 270 271 265 256 242 234 241 241 248 266 283 289 295 300 300 301 300 299 301 299 299 297 295 295 294 291
287 287 350 299 355 303 41 18 341 6 355 11 24 8 31 353 356 303 311 286 290 290 305 337 291 211 300 121 165 125 129 130 115 76 36 354 335 333 330 317 316 323 327 328 329 330 327 327 325 327 331 330 325 325 318 311 316 285 286 279 272 264 263 255 243 243 247 251 266 283 292 297 303 302 302 299 298 300 297 300 297 296 295 292 288 287
8 347 320 23 355 5 60 54 322 219 345 306 194 92 128 62 243 300 315 326 309 311 315 323 44 247 331 319 103 151 179 189 139 40 341 299 262 319 315 321 327 332 337 335 331 332 330 336 347 347 339 336 334 327 312 307 311 308 303 286 289 289 269 245 241 243 252 267 281 289 294 302 308 304 302 300 299 299 300 297 294 290 290 286 287 288
255 236 265 155 258 2 23 8 142 62 128 233 158 117 40 310 126 231 239 250 301 309 310 350 203 203 265 108 132 155 221 218 256 353 352 346 344 343 342 342 337 337 338 339 334 338 354 355 346 337 333 330 329 314 312 310 304 294 296 299 302 302 290 274 272 275 286 299 309 315 313 311 306 302 300 298 298 298 295 293 290 290 290 290 289 289
6 300 266 329 36 90 104 306 324 69 30 297 48 2 287 294 142 287 285 245 293 298 265 212 329 323 125 130 51 201 306 353 359 349 348 345 344 341 340 339 340 339 338 335 348 2 347 335 330 327 325 326 324 318 308 304 303 305 311 314 315 314 291 285 316 337 339 341 336 323 314 308 304 301 299 298 299 297 294 292 291 293 298 298 296 296
65 278 317 44 342 87 114 110 51 2 34 52 20 336 286 130 138 109 314 321 328 302 296 3 323 321 9 318 234 297 0 353 342 343 344 336 338 341 338 341 339 334 333 355 358 341 339 337 337 333 328 328 324 318 312 306 315 317 325 322 318 313 318 3 12 3 353 342 327 318 311 308 304 301 300 301 297 296 296 296 298 298 296 294 293 290
126 324 294 308 240 264 20 99 11 350 11 83 323 229 39 328 3 323 63 327 326 329 313 315 324 306 344 295 2 332 350 336 338 338 342 343 343 341 340 335 336 336 359 352 343 346 346 339 332 328 324 324 322 319 314 317 326 329 322 316 312 335 18 16 5 352 339 331 322 315 311 308 307 306 307 301 298 298 298 303 302 298 294 297 301 303
27 238 300 303 276 304 356 73 314 294 336 15 34 21 332 324 336 4 221 220 63 299 325 303 328 324 182 297 301 346 335 340 339 341 340 340 343 340 335 337 341 359 352 347 347 346 338 333 328 327 326 326 325 331 336 337 336 328 320 330 12 16 2 354 349 342 334 328 321 314 312 312 311 312 308 306 305 305 305 304 303 303 305 305 302 296
269 125 262 272 290 357 13 12 72 121 7 346 20 348 355 359 204 186 16 146 186 294 303 305 314 322 318 271 325 345 342 348 341 343 345 342 341 342 343 348 341 352 348 347 346 341 335 331 326 323 326 326 336 336 335 336 328 335 5 20 6 4 352 350 344 338 329 324 320 319 318 317 317 318 317 313 311 309 305 304 304 304 302 302 303 305
65 31 229 319 342 11 249 135 175 192 127 37 134 11 345 27 355 5 315 68 61 325 291 313 284 293 350 152 149 320 347 344 352 349 342 342 340 344 352 339 341 342 349 345 347 337 333 329 327 327 331 344 343 334 331 343 9 18 5 3 1 351 351 342 335 327 325 322 322 320 318 318 325 325 320 315 311 309 305 304 310 319 325 327 326 328
153 168 44 298 237 255 291 284 293 187 111 106 109 107 131 149 89 90 320 298 338 253 246 235 287 299 188 157 174 254 346 354 351 348 337 333 336 347 345 334 343 342 347 344 340 336 331 328 330 337 348 352 349 357 17 16 5 3 0 351 349 346 341 338 330 328 325 325 322 320 320 327 329 325 317 314 309 315 340 348 343 337 327 319 314 310
75 86 300 242 264 304 14 350 205 96 130 52 34 60 69 46 157 177 210 313 298 319 342 296 271 291 165 212 321 350 353 351 346 341 334 331 345 348 340 331 342 344 346 343 337 336 332 330 344 348 1 11 11 11 359 3 356 352 351 348 345 341 335 336 331 325 326 323 321 323 332 333 326 320 317 312 335 354 344 337 333 325 317 312 306 303
21 288 86 312 351 326 167 255 168 253 66 66 66 60 89 110 57 227 135 54 243 261 273 321 299 307 333 337 338 347 345 344 339 339 336 334 346 345 335 332 341 347 343 342 339 332 334 342 342 355 8 6 360 356 351 348 351 348 346 344 338 332 334 329 327 324 323 324 328 335 335 328 323 320 323 345 349 340 336 329 324 319 313 306 301 299
52 273 62 44 9 340 332 335 326 327 332 322 108 37 12 66 19 34 358 290 250 283 301 284 285 283 310 325 337 346 343 333 335 334 333 346 343 337 332 334 343 343 342 340 333 334 344 340 352 13 2 357 353 350 343 347 348 345 340 336 336 329 330 327 322 323 327 336 337 334 329 327 329 329 337 344 339 332 327 324 317 312 308 305 301 301
132 84 120 146 166 251 248 264 280 309 327 312 310 73 341 33 65 115 202 347 311 297 273 247 278 308 313 331 341 340 344 339 336 339 339 342 336 332 327 338 342 343 343 338 336 339 339 354 13 359 358 348 345 346 351 348 342 337 334 331 330 329 326 324 324 330 341 336 330 326 330 334 330 326 338 336 330 324 319 315 311 308 308 308 306 304
71 355 251 190 223 232 250 264 274 296 288 289 316 314 267 337 38 22 17 300 281 307 304 322 317 312 316 328 336 336 336 336 335 333 333 333 337 336 340 343 342 340 342 338 339 341 347 0 355 357 350 346 346 352 346 341 339 335 331 328 329 330 325 322 336 346 339 332 328 334 336 331 335 338 331 326 322 316 313 312 311 311 310 310 308 306
134 206 260 120 251 245 262 262 269 277 246 252 234 137 7 307 357 219 229 242 275 313 293 303 313 315 313 325 331 335 336 330 324 328 340 338 333 334 348 343 341 339 338 341 341 346 358 345 350 351 345 342 353 349 343 339 335 332 329 330 330 327 326 341 347 340 334 334 336 338 341 341 334 326 323 320 318 317 316 315 313 312 311 308 306 303
97 252 237 190 284 272 267 264 270 257 256 161 154 289 270 272 270 261 272 269 246 246 272 291 312 303 307 323 331 327 329 325 327 335 336 338 334 341 345 340 337 337 337 338 339 349 346 341 334 345 343 348 352 349 342 337 333 332 332 332 330 327 340 348 340 335 335 339 345 343 336 330 325 322 320 320 320 318 316 315 314 313 310 308 305 302
74 289 30 337 319 293 273 283 335 221 203 213 203 244 242 234 233 232 230 261 269 266 289 304 304 305 318 322 317 319 325 329 328 336 339 328 332 347 341 338 336 336 337 337 344 350 346 337 334 338 350 354 348 345 340 334 333 333 334 332 331 336 343 342 336 340 347 344 339 335 330 327 324 323 322 321 319 318 318 318 318 314 311 309 306 303
49 290 62 63 347 303 287 322 302 355 14 166 194 274 318 331 331 291 283 269 315 309 308 314 309 293 306 321 319 328 331 334 335 333 330 330 347 346 340 335 333 336 335 344 351 341 341 338 342 343 352 350 345 342 339 335 336 336 334 331 332 339 342 345 349 348 341 336 332 331 328 325 325 324 323 322 320 321 321 319 316 312 309 307 305 303
138 79 355 18 336 248 239 360 309 6 88 96 253 217 234 250 267 275 261 298 296 313 330 313 269 300 318 330 329 330 332 327 332 335 325 334 350 342 337 333 333 333 340 352 347 340 338 338 339 351 348 343 340 339 339 338 336 333 331 329 336 339 352 353 347 341 334 329 329 330 327 326 326 325 323 322 321 320 318 315 312 310 308 306 303 300
40 111 320 177 299 272 324 325 303 6 23 326 195 157 167 266 294 321 323 312 295 133 218 256 292 320 329 330 329 323 328 333 331 326 323 347 339 338 336 337 335 342 351 343 340 343 339 338 348 353 346 343 336 337 336 336 333 329 327 329 340 354 352 347 341 336 331 330 332 330 327 327 326 324 322 321 320 318 316 313 311 308 305 301 301 298
117 77 176 143 300 295 327 340 355 29 312 235 157 182 358 343 285 240 262 275 189 232 325 318 325 330 327 324 320 319 324 325 326 323 334 1 351 344 340 337 339 356 347 343 339 344 341 340 352 345 345 342 339 335 335 335 335 331 330 345 356 352 346 342 336 333 333 333 331 329 327 327 326 324 322 321 319 317 313 312 309 308 307 303 300 299
208 163 159 298 179 288 18 19 9 279 221 127 211 259 258 266 232 305 315 117 179 68 327 335 329 323 324 323 321 325 329 321 315 307 345 1 9 353 344 339 349 352 343 343 338 341 338 340 348 347 340 340 341 337 336 334 334 334 342 3 352 346 341 338 334 332 334 333 330 329 328 326 325 323 322 320 318 315 313 311 309 307 306 302 298 293
142 118 80 319 88 6 260 174 215 287 357 6 345 303 4 321 332 350 310 317 178 214 356 330 321 323 325 325 327 332 328 321 321 332 8 2 357 355 346 342 358 346 340 333 334 339 334 348 345 344 340 338 337 337 336 334 338 348 349 351 344 340 338 335 334 336 335 332 330 328 327 326 324 323 321 320 317 314 312 312 310 306 304 300 298 296
142 317 230 56 314 122 346 319 328 358 353 264 217 228 221 242 216 215 223 288 114 318 355 324 327 328 328 330 335 335 335 333 334 336 354 355 356 346 343 354 349 343 336 330 338 339 335 349 346 341 338 339 339 339 335 334 350 351 349 345 342 339 336 335 336 337 334 330 330 327 325 324 323 321 320 318 315 312 309 306 302 300 302 299 301 300
32 71 115 114 235 23 30 5 275 257 259 179 221 237 245 237 210 182 134 263 225 240 341 351 331 332 332 334 337 340 344 337 321 321 339 350 345 343 341 344 342 342 334 332 347 337 334 342 345 338 341 341 338 339 333 339 356 350 349 343 339 336 334 335 337 337 334 330 328 325 323 322 321 320 318 315 311 309 308 306 305 301 300 298 294 291
40 352 29 19 16 198 147 181 276 218 264 229 223 252 284 274 5 229 325 335 167 345 355 346 335 329 330 340 340 337 342 321 317 319 335 337 334 337 354 341 339 337 333 335 347 335 334 338 338 342 344 343 339 335 333 355 350 349 344 340 335 335 335 336 336 334 329 327 325 323 322 320 319 318 316 312 309 307 304 304 306 308 306 300 296 296
353 330 54 244 207 214 179 258 294 288 273 273 224 299 293 253 132 0 333 301 348 342 340 340 324 326 336 333 341 320 303 284 293 309 326 328 329 334 346 339 333 333 328 333 338 336 333 337 338 338 342 339 337 335 341 357 349 347 343 338 335 335 334 334 333 330 327 324 323 322 321 319 318 316 313 309 306 305 304 308 308 307 305 304 303 299
319 158 282 83 234 246 200 189 234 245 233 205 279 273 287 358 7 315 284 341 327 321 320 329 321 326 340 318 317 294 294 301 307 317 322 323 327 331 334 333 332 330 330 332 336 335 333 336 336 338 339 339 335 338 347 342 348 345 342 338 336 335 333 334 331 327 325 324 321 320 318 318 317 313 311 308 307 308 312 310 306 301 302 303 303 313
211 109 258 249 255 99 56 292 336 346 281 166 250 165 135 15 267 264 317 296 270 306 317 318 323 325 344 314 306 302 304 312 318 322 323 325 332 331 334 332 332 332 333 336 336 337 339 334 336 338 338 337 334 344 348 338 342 346 341 337 336 334 334 332 329 327 325 321 319 318 316 316 316 317 316 314 311 315 315 312 311 311 306 315 320 319
203 107 281 272 171 278 317 321 236 215 197 193 40 307 237 203 229 199 242 302 299 299 314 310 312 334 332 314 310 309 311 315 322 323 323 327 331 330 328 328 327 329 330 335 336 334 340 335 335 336 336 336 335 346 345 337 340 343 339 336 335 333 333 331 330 326 322 319 318 317 319 321 320 320 316 319 320 317 317 317 318 315 319 325 324 330
200 177 181 239 224 156 216 222 247 281 349 161 142 219 246 191 172 203 215 260 306 314 338 313 310 326 327 310 300 304 315 322 317 324 326 329 328 327 325 327 332 329 333 333 335 338 340 338 335 334 333 334 336 346 343 339 344 339 336 335 333 334 334 332 328 324 320 322 321 321 322 320 322 320 320 324 324 323 321 321 325 322 324 326 328 328
269 174 74 111 252 277 272 247 269 293 289 286 146 174 178 189 216 207 234 289 280 280 4 298 324 316 317 312 312 318 314 318 322 320 326 323 320 319 318 322 325 329 333 335 331 337 340 337 334 332 331 332 337 344 340 339 346 338 334 332 331 334 334 330 326 324 323 322 322 319 320 320 320 321 326 325 324 321 317 316 320 321 320 319 323 329
252 164 135 203 259 24 282 345 197 226 199 208 209 204 174 153 203 191 211 239 276 310 312 8 310 296 291 311 317 313 315 319 313 317 320 318 315 316 320 320 321 330 335 332 333 336 339 337 334 331 331 331 336 343 339 337 345 336 331 329 333 335 333 327 324 324 324 323 320 321 322 325 325 329 329 329 327 325 322 317 317 317 315 319 323 327
322 169 185 228 199 181 253 207 229 234 241 221 185 189 204 212 198 164 198 218 222 219 234 283 317 298 306 314 316 311 307 313 317 319 319 317 316 316 320 320 324 329 331 333 331 337 339 335 331 328 331 330 334 341 336 338 342 337 331 330 332 333 331 330 330 328 324 322 323 323 324 324 329 330 326 329 331 330 328 326 321 320 322 321 324 325
157 125 228 180 208 255 278 276 278 294 271 264 174 195 190 175 198 190 194 227 195 230 275 287 242 285 317 306 321 316 304 308 315 318 317 317 314 315 314 321 326 327 330 332 332 342 339 335 328 327 329 326 333 336 332 336 339 335 332 332 331 335 333 331 329 326 322 322 324 325 325 326 329 330 329 327 326 323 314 310 321 323 318 320 321 329
102 227 198 83 282 269 247 256 123 331 308 275 192 202 192 184 167 194 208 221 211 276 278 288 298 321 311 306 306 294 297 303 319 322 316 317 317 315 318 322 326 326 329 330 330 337 335 330 327 327 327 327 334 334 330 332 336 331 329 328 334 336 333 329 327 326 325 325 326 325 328 331 330 331 330 331 331 329 328 326 331 332 332 332 338 337
190 208 148 195 183 267 251 199 178 199 258 269 236 172 174 171 167 184 218 212 222 235 236 232 301 321 317 294 264 289 293 297 307 323 311 307 309 311 316 320 322 326 324 330 332 333 333 328 326 326 324 326 333 328 326 329 332 329 326 330 336 336 332 331 325 321 323 323 326 328 331 328 329 330 330 331 330 329 325 326 330 334 340 344 343 343